Weather History for Camden, SC

Change the Weather History Date:

Thursday, May 2, 2013

  Actual Average (KSSC) Record (KSSC)
Temperature  
Mean Temperature 64 °F -  
Max Temperature 68 °F 76 °F 91 °F (2007)
Min Temperature 59 °F 54 °F 46 °F (2006)
Degree Days  
Heating Degree Days 2    
Growing Degree Days 14 (Base 50)    
Moisture  
Dew Point 59 °F    
Average Humidity 90    
Maximum Humidity 100    
Minimum Humidity 73    
Precipitation  
Precipitation 0.11 in - - ()
Sea Level Pressure  
Sea Level Pressure 30.23 in    
Wind  
Wind Speed 10 mph (NE)    
Max Wind Speed 15 mph    
Max Gust Speed 20 mph    
Visibility 7 miles    
Events Rain    
Averages and records for this station are not official NWS values.
T = Trace of Precipitation, MM = Missing Value Source: NWS Daily Summary

Daily Weather History Graph

Daily Weather History Graph

Search for Another Location

Airport:

Trip Planner

Search our weather history database for the weather conditions in past years. The results will help you decide how hot, cold, wet, or windy it might be!

Date:

Astronomy

May. 02, 2013 Rise Set
Actual Time 6:31 AM EDT 8:07 PM EDT
Civil Twilight 6:04 AM EDT 8:34 PM EDT
Nautical Twilight 5:32 AM EDT 9:06 PM EDT
Astronomical Twilight 4:58 AM EDT 9:40 PM EDT
Moon 1:58 AM EDT (5/2) 1:13 PM EDT (5/2)
Length of Visible Light 14h 29m
Length of Day
13h 36m
Waning Gibbous, 48% of the Moon is Illuminated
May 2
Waning Gibbous
May 9
New
May 18
First Quarter
May 25
Full
May 31
Last Quarter

Hourly Weather History & Observations

Time (EDT) Temp. Dew Point Humidity Pressure Visibility Wind Dir Wind Speed Gust Speed Precip Events Conditions
12:15 AM 60.8 °F 57.2 °F 88% 30.24 in 10.0 mi NE 13.8 mph 19.6 mph 0.00 in   Overcast
12:35 AM 60.8 °F 57.2 °F 88% 30.24 in 10.0 mi NE 8.1 mph 17.3 mph 0.00 in   Overcast
12:55 AM 60.8 °F 57.2 °F 88% 30.24 in 10.0 mi NE 12.7 mph - 0.00 in   Overcast
1:15 AM 60.8 °F 57.2 °F 88% 30.24 in 10.0 mi NE 12.7 mph - 0.00 in   Overcast
1:35 AM 60.8 °F 57.2 °F 88% 30.24 in 10.0 mi NE 11.5 mph 16.1 mph 0.00 in   Overcast
1:55 AM 60.8 °F 57.2 °F 88% 30.23 in 10.0 mi NE 11.5 mph - 0.00 in   Overcast
2:15 AM 60.8 °F 57.2 °F 88% 30.23 in 4.0 mi NE 9.2 mph - 0.00 in   Light Drizzle
2:35 AM 60.8 °F 59.0 °F 94% 30.23 in 8.0 mi NE 8.1 mph - 0.00 in   Overcast
2:55 AM 60.8 °F 59.0 °F 94% 30.22 in 3.0 mi NE 6.9 mph - 0.01 in   Overcast
3:15 AM 59.0 °F 59.0 °F 100% 30.22 in 2.5 mi NE 8.1 mph - 0.01 in Rain Light Rain
3:35 AM 60.8 °F 60.8 °F 100% 30.22 in 5.0 mi NE 9.2 mph - 0.01 in   Overcast
3:55 AM 60.8 °F 60.8 °F 100% 30.22 in 5.0 mi NE 9.2 mph - 0.01 in   Overcast
4:15 AM 60.8 °F 60.8 °F 100% 30.22 in 3.0 mi NE 10.4 mph - 0.00 in   Overcast
4:35 AM 60.8 °F 60.8 °F 100% 30.22 in 3.0 mi NE 10.4 mph - 0.00 in   Overcast
4:55 AM 60.8 °F 60.8 °F 100% 30.22 in 3.0 mi NE 9.2 mph - 0.00 in   Overcast
5:15 AM 60.8 °F 60.8 °F 100% 30.21 in 5.0 mi NE 10.4 mph - 0.00 in   Overcast
5:35 AM 60.8 °F 60.8 °F 100% 30.21 in 5.0 mi NE 11.5 mph - 0.00 in   Overcast
5:55 AM 60.8 °F 60.8 °F 100% 30.21 in 7.0 mi ENE 10.4 mph 16.1 mph 0.00 in   Overcast
6:15 AM 60.8 °F 60.8 °F 100% 30.22 in 8.0 mi ENE 10.4 mph - 0.00 in   Overcast
6:35 AM 60.8 °F 59.0 °F 94% 30.22 in 9.0 mi NE 9.2 mph - 0.00 in   Overcast
6:55 AM 60.8 °F 59.0 °F 94% 30.23 in 8.0 mi ENE 8.1 mph - 0.00 in   Overcast
7:15 AM 60.8 °F 59.0 °F 94% 30.24 in 9.0 mi ENE 8.1 mph - 0.00 in   Overcast
7:35 AM 60.8 °F 59.0 °F 94% 30.24 in 5.0 mi ENE 8.1 mph - 0.00 in   Overcast
7:55 AM 60.8 °F 59.0 °F 94% 30.24 in 4.0 mi ENE 6.9 mph - 0.00 in   Overcast
8:15 AM 60.8 °F 59.0 °F 94% 30.24 in 6.0 mi NE 8.1 mph - 0.00 in   Overcast
8:35 AM 60.8 °F 59.0 °F 94% 30.25 in 7.0 mi ENE 6.9 mph - 0.00 in   Overcast
8:55 AM 60.8 °F 59.0 °F 94% 30.25 in 8.0 mi NE 10.4 mph - 0.00 in   Overcast
9:15 AM 60.8 °F 59.0 °F 94% 30.26 in 9.0 mi ENE 6.9 mph - 0.00 in   Overcast
9:35 AM 60.8 °F 59.0 °F 94% 30.26 in 8.0 mi NE 8.1 mph - 0.00 in   Overcast
9:55 AM 60.8 °F 59.0 °F 94% 30.26 in 9.0 mi ENE 8.1 mph - 0.00 in   Overcast
10:15 AM 62.6 °F 57.2 °F 82% 30.26 in 9.0 mi ENE 8.1 mph - 0.00 in   Overcast
10:35 AM 62.6 °F 57.2 °F 82% 30.27 in 10.0 mi ENE 9.2 mph - 0.00 in   Overcast
10:55 AM 62.6 °F 57.2 °F 82% 30.26 in 10.0 mi NE 9.2 mph - 0.00 in   Overcast
11:15 AM 62.6 °F 57.2 °F 82% 30.26 in 10.0 mi NE 10.4 mph - 0.00 in   Overcast
11:35 AM 62.6 °F 57.2 °F 82% 30.26 in 10.0 mi ENE 10.4 mph 16.1 mph 0.00 in   Overcast
11:55 AM 62.6 °F 57.2 °F 82% 30.27 in 9.0 mi NE 11.5 mph - 0.00 in   Overcast
12:35 PM 64.4 °F 59.0 °F 83% 30.27 in 10.0 mi NE 9.2 mph - 0.00 in   Overcast
12:55 PM 62.6 °F 59.0 °F 88% 30.27 in 9.0 mi NE 12.7 mph - 0.00 in   Overcast
1:15 PM 64.4 °F 59.0 °F 83% 30.27 in 9.0 mi NE 12.7 mph - 0.00 in   Overcast
1:35 PM 64.4 °F 59.0 °F 83% 30.27 in 9.0 mi ENE 10.4 mph - 0.00 in   Overcast
1:55 PM 64.4 °F 59.0 °F 83% 30.27 in 8.0 mi NE 9.2 mph - 0.00 in   Overcast
2:15 PM 64.4 °F 59.0 °F 83% 30.27 in 9.0 mi NE 6.9 mph - 0.00 in   Overcast
2:35 PM 64.4 °F 59.0 °F 83% 30.26 in 9.0 mi NE 11.5 mph - 0.00 in   Overcast
2:55 PM 66.2 °F 60.8 °F 83% 30.25 in 9.0 mi NE 8.1 mph 16.1 mph 0.00 in   Overcast
3:15 PM 66.2 °F 59.0 °F 78% 30.25 in 10.0 mi NE 11.5 mph - 0.00 in   Mostly Cloudy
3:35 PM 66.2 °F 60.8 °F 83% 30.24 in 10.0 mi NE 11.5 mph - 0.00 in   Overcast
3:55 PM 66.2 °F 60.8 °F 83% 30.23 in 10.0 mi NE 11.5 mph - 0.00 in   Mostly Cloudy
4:15 PM 68.0 °F 60.8 °F 78% 30.22 in 10.0 mi NE 15.0 mph - 0.00 in   Mostly Cloudy
4:35 PM 68.0 °F 60.8 °F 78% 30.21 in 10.0 mi ENE 12.7 mph - 0.00 in   Mostly Cloudy
4:55 PM 68.0 °F 59.0 °F 73% 30.21 in 10.0 mi ENE 13.8 mph 18.4 mph 0.00 in   Mostly Cloudy
5:15 PM 66.2 °F 59.0 °F 78% 30.20 in 10.0 mi NE 13.8 mph - 0.00 in   Mostly Cloudy
5:35 PM 66.2 °F 59.0 °F 78% 30.20 in 10.0 mi NE 12.7 mph - 0.00 in   Overcast
5:55 PM 66.2 °F 59.0 °F 78% 30.20 in 10.0 mi NE 9.2 mph - 0.00 in   Overcast
6:15 PM 66.2 °F 59.0 °F 78% 30.20 in 10.0 mi NE 11.5 mph - 0.00 in   Overcast
6:35 PM 66.2 °F 59.0 °F 78% 30.20 in 10.0 mi NE 9.2 mph - 0.00 in   Overcast
6:55 PM 66.2 °F 59.0 °F 78% 30.20 in 10.0 mi NE 11.5 mph 18.4 mph 0.00 in   Overcast
7:15 PM 62.6 °F 60.8 °F 94% 30.21 in 1.0 mi East 4.6 mph - 0.00 in Rain Light Rain
7:35 PM 62.6 °F 62.6 °F 100% 30.21 in 0.8 mi NE 5.8 mph - 0.03 in   Light Drizzle
7:55 PM 62.6 °F 62.6 °F 100% 30.21 in 1.2 mi NE 8.1 mph - 0.04 in   Overcast
8:15 PM 62.6 °F 62.6 °F 100% 30.22 in 1.0 mi ENE 6.9 mph - 0.00 in Rain Light Rain
8:35 PM 62.6 °F 62.6 °F 100% 30.22 in 3.0 mi ENE 8.1 mph - 0.01 in   Light Drizzle
8:55 PM 62.6 °F 60.8 °F 94% 30.22 in 1.5 mi ENE 6.9 mph - 0.02 in Rain Light Rain
9:15 PM 60.8 °F 60.8 °F 100% 30.22 in 8.0 mi ENE 8.1 mph - 0.00 in   Overcast
9:35 PM 60.8 °F 60.8 °F 100% 30.23 in 10.0 mi ENE 8.1 mph - 0.00 in   Overcast
9:55 PM 60.8 °F 60.8 °F 100% 30.23 in 10.0 mi ENE 8.1 mph - 0.00 in   Overcast
10:15 PM 60.8 °F 60.8 °F 100% 30.23 in 5.0 mi NE 6.9 mph - 0.00 in Rain Light Rain
10:35 PM 60.8 °F 60.8 °F 100% 30.23 in 1.5 mi NE 10.4 mph - 0.03 in Rain Rain
10:55 PM 60.8 °F 60.8 °F 100% 30.22 in 7.0 mi NNE 6.9 mph - 0.03 in   Overcast
11:15 PM 60.8 °F 60.8 °F 100% 30.21 in 8.0 mi NE 9.2 mph - 0.00 in   Overcast
11:35 PM 60.8 °F 60.8 °F 100% 30.21 in 7.0 mi NE 8.1 mph - 0.00 in   Overcast
11:55 PM 60.8 °F 59.0 °F 94% 30.21 in 8.0 mi NE 8.1 mph - 0.00 in   Mostly Cloudy